This is the latest recevied weather packets stored in our database for station/object N5PA. If no packets are shown the sender has not sent any weather packets the latest 10 day(s).
| Time | Temp. | Humidity | Pressure | Rain* | Wind** | Luminosity | Snow |
|---|---|---|---|---|---|---|---|
| 1777741208 | 18.89° C | 44% | 1017.8 hPa | 0 mm | - | 1018 W/m² | - |
| 1777740909 | 18.89° C | 46% | 1017.9 hPa | 0 mm | - | 1025 W/m² | - |
| 1777740608 | 18.89° C | 43% | 1017.8 hPa | 0 mm | - | 1025 W/m² | - |
| 1777740308 | 18.89° C | 48% | 1017.8 hPa | 0 mm | - | 1025 W/m² | - |
| 1777740008 | 18.89° C | 47% | 1017.8 hPa | 0 mm | - | 1023 W/m² | - |
| 1777739708 | 18.89° C | 47% | 1017.8 hPa | 0 mm | - | 1023 W/m² | - |
| 1777739408 | 18.33° C | 50% | 1017.8 hPa | 0 mm | - | 1023 W/m² | - |
| 1777739108 | 18.33° C | 49% | 1017.7 hPa | 0 mm | - | 1023 W/m² | - |
| 1777738807 | 18.33° C | 46% | 1017.8 hPa | 0 mm | - | 1023 W/m² | - |
| 1777738508 | 17.78° C | 48% | 1017.7 hPa | 0 mm | - | 1025 W/m² | - |
| 1777738207 | 17.78° C | 53% | 1017.8 hPa | 0 mm | - | 1021 W/m² | - |
| 1777737907 | 17.78° C | 55% | 1017.8 hPa | 0 mm | - | 1023 W/m² | - |
| 1777737609 | 17.78° C | 55% | 1017.7 hPa | 0 mm | - | 1013 W/m² | - |
| 1777737307 | 17.78° C | 56% | 1017.6 hPa | 0 mm | - | 1023 W/m² | - |
| 1777737008 | 17.78° C | 57% | 1017.6 hPa | 0 mm | - | 1023 W/m² | - |
| 1777736709 | 17.78° C | 56% | 1017.5 hPa | 0 mm | - | 1021 W/m² | - |
| 1777736408 | 17.22° C | 56% | 1017.4 hPa | 0 mm | - | 1023 W/m² | - |
| 1777736107 | 17.22° C | 60% | 1017.4 hPa | 0 mm | - | 1023 W/m² | - |
| 1777735807 | 17.22° C | 63% | 1017.3 hPa | 0 mm | - | 1021 W/m² | - |
| 1777735508 | 17.22° C | 61% | 1017.4 hPa | 0 mm | - | 1021 W/m² | - |
| 1777735207 | 17.22° C | 66% | 1017.4 hPa | 0 mm | - | 1014 W/m² | - |
| 1777734906 | 16.67° C | 64% | 1017.4 hPa | 0 mm | - | 1021 W/m² | - |
| 1777734606 | 16.67° C | 63% | 1017.4 hPa | 0 mm | - | 1021 W/m² | - |
| 1777734308 | 16.67° C | 64% | 1017.4 hPa | 0 mm | - | 1023 W/m² | - |
| 1777734011 | 16.67° C | 67% | 1017.4 hPa | 0 mm | - | 1023 W/m² | - |
* Rain latest hour (hover to see other rain measurements)
** Current wind speed in m/s (hover to see current wind gust speed)